Probability
16 12 10 8 4 2 1 1 0 0 0 0 0 0 0 0 0 0 0 0 0 0 0 0 0 0 0 0 0 0 0 0 0 0 0 0 0 0 0 0 0 0 0
23 16 11 8 5 3 2 2 1 0 0 0 0 0 0 0 0 0 0 0 0 0 0 0 0 0 0 0 0 0 0 0 0 0 0 0 0 0 0 0 0 0 0
29 18 9 7 5 4 4 3 1 0 0 0 0 0 0 0 0 0 0 0 0 0 0 0 0 0 0 0 0 0 0 0 0 0 0 0 0 0 0 0 0 0 0
25 15 9 9 6 5 5 4 1 0 0 0 1 1 1 1 0 0 0 0 0 0 0 0 0 0 0 0 0 0 0 0 0 0 0 0 0 0 0 0 0 0 0
17 15 15 14 10 8 8 6 3 1 1 1 2 2 2 2 1 1 0 0 0 0 0 0 0 0 0 0 0 0 0 0 0 0 0 0 0 0 0 0 0 0 0
20 19 20 20 15 12 9 7 5 3 2 2 3 3 3 3 3 2 1 0 0 0 0 0 0 0 0 0 0 0 0 0 0 0 0 0 0 0 0 0 0 0 0
30 27 24 23 19 14 10 7 5 3 2 2 3 3 3 3 4 4 3 2 2 3 3 1 0 0 0 0 0 0 0 0 0 0 0 1 1 0 0 0 0 0 0
43 37 30 26 23 17 13 9 6 3 1 1 2 3 4 5 5 6 7 7 7 8 8 5 3 1 1 0 0 0 0 0 0 0 1 4 4 2 1 1 0 0 0
54 48 37 33 31 24 17 13 10 6 3 2 2 3 5 7 7 8 11 13 15 15 14 10 7 5 4 2 0 0 0 0 0 0 2 10 15 12 5 2 1 0 0
63 56 46 42 39 30 23 20 18 15 11 9 8 8 8 9 11 14 18 23 26 23 19 15 13 11 9 6 2 1 0 0 0 0 2 17 33 29 15 6 2 0 0
66 61 55 52 43 31 30 33 30 25 22 19 18 19 17 13 14 21 31 42 43 35 28 24 20 18 14 9 5 3 1 1 0 0 6 29 53 50 31 15 5 1 0
67 63 62 61 49 35 39 48 39 33 37 32 30 35 31 21 18 27 48 65 63 52 44 37 30 25 19 13 12 10 6 1 1 1 15 47 70 66 48 28 13 4 1
67 63 67 70 59 45 52 59 47 46 56 50 45 52 48 36 32 40 61 78 76 67 57 48 41 33 24 18 21 21 10 2 2 6 25 58 77 71 56 39 23 10 5
67 64 69 76 72 63 65 68 62 62 70 68 66 67 64 58 54 56 69 81 81 76 65 56 51 45 34 26 26 25 16 7 6 11 29 56 72 68 57 44 30 16 9
70 69 74 80 81 78 78 78 75 74 77 80 83 83 80 78 74 72 75 80 81 77 71 64 59 56 47 37 29 26 23 18 14 17 30 48 61 62 55 43 30 18 12
76 78 82 85 87 88 85 82 81 80 82 84 88 91 90 87 85 82 79 77 78 76 72 68 64 62 55 44 35 31 31 28 24 23 30 41 50 53 50 41 30 20 16
80 85 88 88 90 90 87 84 82 81 81 83 86 89 89 86 85 83 79 76 77 74 68 64 63 60 53 45 40 37 37 37 33 29 31 36 41 42 40 37 33 26 21
82 86 88 86 86 85 84 82 80 78 78 78 80 81 79 76 75 73 71 71 71 67 59 56 55 51 45 41 40 39 39 38 36 33 32 35 37 36 34 34 34 30 25
81 83 82 80 79 77 76 76 76 75 73 72 72 70 63 58 57 57 58 60 58 53 49 46 45 41 35 32 31 32 31 32 32 32 32 34 36 37 35 33 31 27 24
76 77 76 76 76 74 73 74 74 72 69 65 62 56 47 41 41 43 45 46 45 43 40 38 35 31 27 22 18 17 19 20 23 25 26 27 30 34 35 34 31 26 23
65 67 70 72 74 73 72 71 70 67 61 54 48 42 34 31 33 34 33 35 35 36 34 31 28 24 20 16 10 8 8 10 13 17 20 20 20 24 30 33 35 32 29
46 51 59 66 69 66 63 60 59 55 48 40 36 31 26 24 25 25 26 27 30 31 29 27 25 22 18 13 9 7 5 4 6 10 15 16 14 16 23 29 33 35 33
30 35 44 55 57 54 49 46 43 39 33 28 28 27 21 16 16 18 20 22 26 27 26 25 25 22 16 11 10 10 10 10 9 10 10 11 12 14 18 21 25 30 31
18 22 32 42 45 41 38 37 34 28 23 22 23 21 18 13 10 12 15 18 21 22 20 20 20 19 15 12 12 14 16 17 15 11 6 6 11 16 17 17 19 24 27
8 14 25 35 36 33 32 31 29 24 20 19 17 15 13 10 6 7 11 14 15 14 12 12 13 13 12 12 14 16 17 18 16 10 4 4 9 15 17 17 18 22 24
5 10 21 32 34 32 29 27 25 22 19 16 13 11 10 8 4 4 7 11 11 9 7 7 9 10 10 12 14 15 17 18 16 10 5 3 6 13 17 18 20 21 23
Wind_Speed
18 19 20 17 15 13 12 12 12 12 12 11 11 10 10 10 10 10 10 10 10 10 10 10 9 9 9 10 11 12 12 12 13 14 14 13 12 11 10 9 12 13 14
22 20 20 17 15 13 12 12 12 12 12 12 11 11 10 10 9 9 9 9 8 9 9 9 9 9 9 10 10 10 10 9 10 11 13 12 11 10 9 8 13 11 13
22 19 18 17 15 13 12 12 12 12 12 12 11 11 10 10 9 9 8 8 8 9 9 9 9 9 9 9 9 8 8 7 7 8 10 9 9 10 11 14 16 14 13
21 18 17 18 16 14 13 12 12 12 12 11 11 11 10 10 9 9 8 8 7 8 8 8 8 8 8 8 8 7 5 4 5 6 5 6 9 11 11 12 13 12 12
19 17 18 19 16 15 13 13 12 12 11 11 11 11 10 10 9 9 8 8 7 7 8 8 8 8 8 7 7 6 4 4 4 7 4 6 9 11 11 10 10 10 10
18 18 18 18 17 15 14 13 12 12 11 11 11 10 10 10 9 9 8 8 7 7 8 7 7 7 7 7 6 5 4 4 5 7 3 8 9 11 11 10 9 9 9
18 18 18 18 17 15 13 12 12 11 11 11 10 10 10 9 9 9 8 8 8 7 7 7 7 7 7 7 6 5 5 6 7 6 2 8 10 13 11 10 9 9 9
19 19 17 17 16 14 13 12 11 11 10 10 10 10 10 9 9 9 9 9 9 8 8 8 8 8 8 7 7 7 7 8 8 8 4 9 15 15 13 10 9 8 9
19 18 15 14 14 14 13 12 12 11 10 10 10 10 10 9 9 9 9 9 9 9 9 8 9 9 9 9 9 9 9 10 9 7 5 8 16 16 14 12 10 9 9
18 17 15 14 13 12 12 13 12 12 11 11 10 10 10 10 10 11 10 11 11 11 10 10 10 10 10 11 11 11 11 10 9 10 5 9 19 18 16 13 12 11 11
14 14 15 15 13 12 12 14 13 12 12 11 10 12 10 9 10 11 14 14 15 13 13 12 12 12 11 12 13 13 11 7 10 8 5 13 20 19 17 15 13 13 12
11 12 12 14 13 11 10 10 9 10 10 10 8 10 9 8 7 9 14 17 17 16 15 14 13 12 11 8 12 14 7 10 10 8 5 17 19 18 18 16 14 14 14
7 8 9 9 7 7 5 8 6 6 7 10 9 9 7 6 6 5 4 9 11 13 10 11 11 9 9 7 6 8 10 9 7 6 6 17 18 17 17 16 15 14 14
7 6 6 8 5 2 2 4 4 3 4 5 7 7 6 3 3 3 2 4 6 6 7 6 6 9 9 9 8 8 11 8 5 3 5 16 17 17 17 16 15 15 15
5 4 4 5 5 2 1 2 1 1 2 3 3 5 4 3 3 3 2 2 3 3 5 6 5 6 7 7 7 8 9 8 7 5 4 16 18 17 17 17 17 17 16
4 4 4 4 4 2 0 1 3 3 2 1 1 1 3 3 3 2 3 2 3 3 3 4 6 6 6 5 6 7 7 7 7 6 6 11 17 17 17 17 17 18 18
4 5 5 5 4 3 1 2 2 3 2 2 1 1 1 3 3 3 3 4 4 4 5 4 5 4 5 6 7 7 7 7 6 7 6 5 8 15 17 17 17 18 18
8 8 7 4 4 3 2 1 2 3 3 3 2 2 3 3 3 3 4 5 4 4 4 4 4 4 4 4 4 5 5 5 8 7 5 5 6 8 13 17 17 18 19
9 8 8 7 6 4 2 1 2 1 2 2 2 2 2 3 3 3 3 3 3 3 4 5 4 4 4 4 4 5 5 5 6 7 7 8 8 7 6 12 18 19 20
8 8 6 6 5 3 3 2 2 2 2 1 2 2 3 3 4 3 3 3 4 3 4 4 4 4 4 3 6 5 4 5 4 5 6 7 7 9 9 9 10 14 19
7 6 5 5 4 3 2 2 2 2 2 2 1 2 3 3 3 3 3 3 3 3 4 5 4 5 5 3 3 4 5 6 6 5 5 5 6 7 8 8 8 8 9
5 4 4 4 4 3 2 2 1 2 2 2 1 1 2 3 3 3 2 3 3 3 4 4 4 3 4 4 4 3 3 3 4 7 5 5 5 4 5 8 6 7 6
4 3 3 3 3 3 3 2 2 2 2 2 2 1 1 2 2 3 3 2 3 2 2 3 4 4 4 4 4 4 3 3 2 3 5 5 5 4 4 5 7 8 8
2 3 2 2 2 2 2 3 4 4 4 3 2 2 2 2 3 3 2 2 2 2 2 3 2 3 4 4 3 3 3 0 1 1 2 4 5 5 5 5 6 7 7
1 1 1 2 1 1 2 3 4 4 4 4 4 4 4 3 3 3 2 2 1 2 2 2 2 2 3 4 3 3 4 3 3 2 3 2 3 4 5 4 3 4 6
2 1 0 0 0 2 3 4 4 5 6 6 6 6 5 4 3 3 2 1 1 1 2 2 2 3 3 4 4 3 3 3 3 3 4 4 4 4 5 5 5 5 5
Wind_Direction
124 134 139 138 137 136 136 141 144 143 141 138 135 132 128 124 119 114 109 104 101 101 100 100 101 99 91 85 82 83 85 88 91 94 95 94 93 92 91 102 114 98 102
124 134 139 138 138 138 137 140 144 144 144 143 141 140 138 136 132 126 122 117 113 108 105 103 102 101 99 97 95 95 96 101 106 111 113 105 95 86 78 80 101 107 108
122 132 138 138 139 139 138 140 143 146 148 148 146 145 145 144 141 137 134 131 125 117 112 111 107 106 106 107 107 108 111 118 126 138 150 127 109 91 85 90 101 110 110
125 137 140 141 141 141 140 141 144 147 150 152 151 150 151 150 148 147 144 141 136 128 124 122 118 117 116 117 118 121 130 146 161 184 200 139 123 107 100 101 108 113 114
130 136 136 145 144 143 143 144 147 150 153 155 156 156 156 156 158 157 153 149 146 140 136 136 132 130 129 130 134 141 162 199 222 240 227 121 111 123 118 115 117 118 120
134 134 140 146 146 147 147 148 151 153 155 157 159 161 162 164 166 164 159 158 159 153 150 149 147 145 145 147 153 167 201 235 258 246 186 125 123 136 132 132 131 130 129
137 132 143 148 148 150 151 153 156 158 160 163 165 167 169 171 174 175 173 172 171 168 166 164 163 161 163 167 175 190 222 248 258 269 170 123 133 143 145 147 147 146 144
133 133 140 147 149 152 155 158 161 164 167 170 173 176 179 180 183 186 184 182 181 181 179 178 177 177 181 185 193 205 227 253 249 254 181 136 146 150 153 158 160 159 159
131 132 144 149 153 158 162 165 169 172 175 179 182 185 188 192 194 196 194 193 192 192 193 192 193 193 193 196 203 213 228 246 271 280 234 146 154 155 159 166 173 175 173
132 139 149 152 157 164 169 175 178 181 184 188 192 196 199 203 207 209 206 203 203 202 202 203 205 207 205 205 209 215 226 242 253 262 250 159 159 161 165 173 181 186 186
136 142 152 154 163 173 176 174 180 187 191 195 200 205 208 214 212 209 216 205 203 205 207 210 211 214 214 214 216 218 222 231 239 242 244 166 165 166 169 177 186 192 193
145 150 157 156 166 179 182 158 181 189 187 200 202 197 205 220 230 223 202 200 202 206 210 213 216 218 218 221 216 215 219 225 243 239 210 167 169 170 173 179 189 196 198
149 156 150 147 164 179 168 157 189 194 177 197 212 197 205 218 225 228 194 189 199 207 213 214 214 219 218 220 215 199 217 228 227 241 187 169 172 176 179 183 191 198 202
160 160 148 141 148 176 173 166 187 196 172 193 197 204 206 214 245 250 212 184 189 202 209 215 207 212 219 223 220 209 214 223 231 223 181 172 177 182 185 189 195 201 205
145 159 131 126 133 134 3 331 244 235 200 202 175 187 204 207 227 249 255 232 230 220 206 208 214 216 218 225 224 222 224 222 228 226 187 182 187 189 191 196 202 206 208
133 141 120 109 105 107 61 320 324 325 345 319 319 209 203 228 223 228 243 239 244 249 244 213 213 216 218 220 227 232 233 233 228 223 205 190 193 193 196 201 206 209 211
87 88 89 100 93 97 58 314 301 295 299 309 325 302 251 247 238 237 243 233 229 237 242 238 232 223 219 219 224 230 233 231 230 230 218 189 195 203 202 204 207 211 213
52 60 61 63 84 85 65 354 319 323 337 339 340 336 313 292 279 262 260 249 232 232 235 231 231 238 234 229 229 233 233 223 222 224 219 206 202 209 208 209 212 215 215
59 61 61 56 56 57 55 7 322 329 320 315 324 333 322 305 295 278 271 269 253 243 237 240 223 221 231 231 238 233 235 231 220 221 217 216 209 204 195 205 214 217 216
64 66 65 68 58 39 34 3 342 331 331 341 348 343 319 301 298 292 272 257 256 253 247 238 233 228 228 225 247 249 237 236 220 212 215 220 210 202 202 201 204 217 218
68 67 64 63 56 42 32 355 341 343 340 333 320 345 328 305 299 286 291 289 260 250 252 248 237 232 223 215 234 255 253 232 220 211 208 220 221 210 201 194 189 199 208
83 78 80 64 49 29 24 330 298 301 284 270 298 329 313 308 300 290 304 297 276 255 248 250 235 237 237 212 208 219 234 228 223 213 197 203 220 214 204 199 192 190 195
85 72 62 60 53 27 357 333 336 321 305 311 317 296 306 310 302 287 294 291 291 280 262 258 234 230 239 232 220 219 220 218 199 206 207 204 195 201 204 193 193 191 196
87 93 97 90 68 24 345 338 326 311 306 305 306 310 313 291 286 285 283 290 302 304 300 287 282 251 244 245 239 238 246 310 200 236 233 210 196 200 211 214 201 184 187
49 92 109 97 71 345 316 309 309 312 316 318 318 305 296 281 265 256 240 250 269 279 298 317 325 299 263 260 256 245 239 228 224 216 241 225 212 200 203 210 205 185 187
295 289 64 122 274 282 290 301 304 309 310 308 301 293 286 275 263 260 258 242 257 264 289 297 293 286 281 273 268 257 246 222 213 218 225 222 215 214 201 199 196 187 185